Temp
14 14 13 13 13 12 12 12 12 11 11 11 11 11 10 10 10 10 10 10 9 9 9 9 9 9 9 9 9 9 8 8 8 8 8 7 7 7 7 7 7 6 6 6 6 5 5 5 4 4 4 3 3 3 3 3 2 2 2 2 2 2 2 2 1 1 2 1 1
14 14 13 13 13 12 12 12 12 11 11 11 11 11 11 10 10 10 10 10 10 10 9 9 9 9 9 9 9 9 8 8 8 8 8 7 7 7 7 7 7 6 6 6 6 5 5 5 4 4 3 3 3 3 3 3 2 2 2 2 2 2 2 1 1 1 1 1 1
14 13 13 13 13 12 12 12 12 12 12 12 11 11 11 11 11 10 10 10 10 10 10 9 9 9 9 9 9 9 9 8 8 8 8 7 7 7 7 7 7 6 6 6 6 5 5 5 4 4 4 3 3 3 3 3 2 2 2 2 2 2 1 1 1 1 1 1 1
14 13 13 13 13 13 12 12 12 12 12 12 12 11 11 11 11 10 10 10 10 10 10 10 10 10 9 9 9 9 9 8 8 8 8 7 7 7 7 7 7 6 6 6 6 5 5 5 4 4 4 3 3 3 3 3 2 2 2 2 2 1 1 1 1 1 1 1 1
14 13 13 13 13 13 13 12 12 12 12 12 11 11 11 11 11 11 10 10 10 10 10 10 10 10 9 9 9 9 9 9 8 8 8 7 7 7 7 7 7 6 6 6 6 5 5 5 4 4 4 3 3 3 3 3 3 2 2 2 2 1 1 1 1 1 1 1 1
14 13 13 13 13 13 13 12 12 12 12 12 12 11 11 11 11 11 10 10 10 10 10 10 10 10 9 9 9 9 9 9 8 8 8 7 7 7 7 7 7 6 6 6 6 5 5 5 4 4 4 3 3 3 3 3 2 2 2 2 1 1 1 1 1 1 1 1 1
14 13 13 13 13 13 12 12 12 12 12 12 12 11 11 11 11 11 11 10 10 10 10 10 10 9 9 9 9 9 9 9 8 8 8 8 7 7 7 7 7 6 6 6 6 5 5 5 4 4 4 3 3 3 3 3 2 2 2 2 1 1 1 1 1 1 1 1 1
14 14 13 13 13 13 12 12 12 12 12 11 11 11 11 11 11 11 11 10 10 10 10 10 9 9 9 9 9 9 9 8 8 8 8 7 7 7 7 7 7 6 6 6 6 5 5 4 4 4 3 3 3 3 3 3 2 2 2 2 2 1 1 1 1 1 1 1 1
14 14 13 13 13 12 12 12 12 12 11 11 11 11 11 11 11 11 10 10 10 10 10 9 9 9 9 9 9 8 8 8 8 8 8 7 7 7 7 7 6 6 6 6 5 5 5 4 4 3 3 3 3 3 3 3 2 2 2 2 2 1 1 1 1 1 1 1 1
14 14 13 13 13 12 12 12 12 12 11 11 11 11 11 11 11 10 10 10 10 10 9 9 9 9 9 9 8 8 8 8 8 8 7 7 7 7 7 7 7 6 6 6 5 5 5 4 4 3 3 3 3 3 3 3 2 2 2 2 2 1 1 1 1 1 1 0 0
14 14 13 13 13 12 12 12 12 12 11 11 11 11 11 11 11 11 10 10 10 10 10 10 9 9 8 8 8 8 8 7 7 7 7 7 7 7 7 7 7 6 6 6 6 5 4 4 4 3 3 3 3 3 3 3 2 2 2 2 1 1 1 1 1 1 0 0 0
14 14 13 13 13 13 12 12 12 12 12 11 11 11 11 11 11 11 10 10 10 10 10 9 9 9 8 8 8 8 7 7 7 7 7 7 7 7 7 7 6 6 6 6 6 5 4 4 3 3 3 3 3 3 3 2 2 2 2 2 1 1 1 1 1 1 0 0 -0
14 14 13 13 13 13 12 12 12 12 12 12 12 11 11 11 11 11 10 10 10 10 9 9 9 8 8 8 8 7 7 7 7 7 6 6 6 6 6 6 6 6 6 6 5 5 4 4 4 3 3 3 3 3 2 2 2 2 2 1 1 1 1 1 1 1 0 0 -0
14 14 13 13 13 13 13 12 12 12 12 12 12 11 11 11 11 11 10 10 10 9 9 9 9 8 8 8 7 7 7 7 6 6 6 6 6 6 6 6 6 6 6 6 5 5 4 4 4 4 3 3 3 3 3 2 2 2 2 1 1 1 1 1 1 1 0 0 -0
14 14 13 13 13 13 13 13 12 12 12 12 12 11 11 11 11 10 10 10 9 9 9 9 8 8 8 8 7 7 7 7 6 6 6 6 6 6 6 6 6 5 5 5 5 5 5 4 4 4 3 3 3 3 3 2 2 2 2 1 1 1 1 1 1 1 0 -0 -0
13 13 13 13 13 13 13 12 12 12 12 12 11 11 11 11 10 10 10 10 9 9 9 8 8 8 8 8 7 7 7 6 6 6 6 6 6 5 5 5 5 5 5 5 5 5 4 4 4 4 3 3 3 3 2 2 2 2 2 1 1 1 1 1 1 1 0 0 -0
13 13 13 13 13 12 12 12 12 12 12 11 11 11 11 10 10 10 10 9 9 9 9 8 8 8 8 8 7 7 7 6 6 6 6 5 5 5 5 5 5 5 5 5 5 5 4 4 4 4 3 3 3 2 2 2 2 2 2 1 1 1 1 1 1 1 0 0 -0
13 13 13 12 12 12 12 12 12 12 11 11 11 11 11 10 10 10 10 10 9 9 9 9 8 8 8 7 7 7 6 6 6 6 6 6 5 5 5 5 5 5 5 5 4 4 4 4 4 3 3 3 2 2 2 2 2 2 1 1 1 1 1 1 1 1 0 0 -0
12 12 12 12 12 12 12 12 11 11 11 11 11 11 10 10 10 10 10 10 10 9 9 8 8 8 8 7 7 7 7 6 6 6 6 6 5 5 5 5 5 5 5 4 4 4 4 4 4 3 3 2 2 2 2 2 1 1 1 1 1 1 1 1 1 0 0 0 -0
12 12 12 12 12 12 11 11 11 11 11 11 10 10 10 10 10 10 10 10 10 9 8 8 8 8 8 7 7 7 7 6 6 6 6 6 5 5 5 5 5 5 5 4 4 4 4 4 3 3 3 2 2 2 1 1 1 1 1 1 1 1 1 1 0 0 0 0 -0
12 12 12 12 11 11 11 11 11 11 10 10 10 10 10 10 10 10 10 10 9 9 8 8 7 7 7 7 7 7 6 6 6 6 6 6 5 5 5 5 5 5 4 4 4 4 4 3 3 3 3 2 2 2 1 1 1 1 1 1 0 0 0 0 0 0 -0 -0 -0
11 11 11 11 11 11 11 11 10 10 10 10 10 10 10 10 10 10 10 9 9 8 8 8 7 7 7 7 6 6 6 6 6 6 6 5 5 5 5 5 5 4 4 4 4 4 3 3 3 3 2 2 2 1 1 1 1 0 0 0 0 0 0 0 -0 -0 -0 -0 -1
11 11 10 10 10 10 10 10 10 10 10 10 10 10 10 10 10 10 10 9 8 8 8 7 7 7 7 6 6 6 6 6 6 6 6 6 5 5 5 5 5 4 4 4 4 4 3 3 3 3 2 2 2 1 1 1 0 0 0 -0 -0 -0 -0 -0 -0 -1 -1 -1 -1
10 10 10 10 10 10 10 10 10 10 9 10 10 10 10 10 10 10 9 9 8 8 7 7 7 6 6 6 6 6 5 5 5 5 6 6 5 5 5 5 5 4 4 4 4 3 3 3 2 2 2 2 1 1 1 0 0 -0 -0 -0 -0 -1 -1 -1 -1 -1 -1 -1 -1
10 10 10 10 10 10 10 9 9 9 9 10 10 10 10 10 10 9 9 8 8 8 7 7 7 6 6 6 6 5 5 5 5 5 5 5 5 5 5 5 5 4 4 4 4 3 3 2 2 2 2 1 1 1 1 0 0 -0 -0 -1 -1 -1 -1 -1 -1 -1 -1 -1 -1
9 9 9 9 9 9 9 9 9 9 9 10 10 10 10 10 9 8 8 8 7 7 7 7 6 6 6 5 5 5 5 5 5 5 5 5 5 5 5 4 4 4 4 4 4 3 3 3 2 2 2 2 1 1 0 -0 -0 -0 -1 -1 -1 -1 -1 -1 -1 -1 -1 -1 -1
9 9 9 9 9 9 9 9 9 9 9 10 10 9 9 9 8 8 7 7 7 7 6 6 6 6 5 5 5 5 5 5 5 5 5 5 5 5 4 4 4 4 4 4 3 3 3 3 3 3 3 3 2 1 1 0 -0 -0 -1 -1 -1 -1 -1 -1 -1 -1 -1 -1 -2
8 8 8 8 8 8 9 9 9 9 9 9 9 9 8 8 8 7 7 6 6 6 6 5 5 5 5 5 5 5 5 5 5 5 5 4 4 4 4 4 4 4 4 4 3 3 3 3 3 3 3 3 3 2 2 1 0 -0 -1 -1 -1 -1 -1 -1 -1 -1 -1 -2 -2
8 8 8 8 8 8 8 8 8 8 8 8 8 8 7 7 7 6 6 6 6 5 5 5 5 5 5 4 5 5 5 4 4 4 4 4 4 4 4 4 4 4 4 4 4 3 3 3 3 3 3 3 3 3 2 2 1 -0 -1 -1 -1 -1 -2 -2 -2 -2 -2 -2 -2
8 8 7 7 7 7 7 7 7 7 7 7 7 7 7 6 6 6 5 5 5 5 5 5 5 5 4 4 4 4 4 4 4 4 4 4 4 4 4 4 4 4 4 4 4 3 3 3 3 3 3 3 3 3 3 2 2 1 0 -1 -1 -1 -1 -2 -2 -2 -2 -2 -2
7 7 7 7 7 7 7 7 7 7 7 7 6 6 6 6 6 5 5 5 5 5 5 5 4 4 4 4 4 4 4 4 4 4 4 4 4 4 4 4 4 4 4 4 4 3 3 3 3 3 3 3 3 3 3 3 2 2 1 0 -0 -1 -1 -1 -2 -2 -2 -2 -2
7 7 7 6 6 6 7 7 7 6 6 6 6 6 6 5 5 5 5 5 5 5 5 4 4 4 4 4 4 4 4 4 4 4 4 4 4 4 4 4 4 4 4 4 3 3 3 3 3 3 3 3 3 3 3 3 2 2 1 1 0 -0 -1 -1 -1 -1 -2 -2 -2
7 7 7 6 6 6 6 6 6 6 6 6 6 5 5 5 5 5 5 5 5 4 4 4 4 4 4 4 4 4 4 4 4 4 4 4 4 4 4 3 3 3 3 3 3 3 3 3 3 3 3 3 3 3 3 3 2 2 2 1 1 0 0 -0 -1 -1 -1 -2 -2
7 6 6 6 6 6 6 6 6 6 5 5 5 5 5 5 5 5 5 5 5 5 5 5 4 4 4 4 4 4 4 4 4 4 4 4 4 4 3 3 3 3 3 3 3 3 3 3 3 3 3 3 3 3 3 2 2 2 2 1 1 1 0 0 -0 -1 -1 -1 -1
6 6 5 5 5 5 5 5 5 5 5 5 5 5 5 5 5 5 5 5 5 5 5 5 5 4 4 4 4 4 4 4 4 4 4 4 3 3 3 3 3 3 3 3 3 3 3 3 3 3 3 3 3 3 3 2 2 2 2 1 1 1 1 0 -0 -0 -1 -1 -1
6 5 5 5 5 5 5 5 5 5 5 5 5 5 5 5 5 5 5 5 5 5 4 4 4 4 4 4 4 4 4 4 4 4 3 3 3 3 3 3 3 3 3 3 3 3 3 3 3 3 3 3 3 3 2 2 2 2 1 1 1 1 1 1 0 -0 -0 -1 -1
5 5 5 5 5 5 5 5 5 5 5 5 5 5 5 5 5 5 5 5 4 4 4 4 4 4 4 4 4 4 4 4 3 3 3 3 3 3 3 3 3 3 3 3 3 3 3 3 3 3 3 3 3 3 2 2 2 1 1 1 1 1 1 1 0 0 -0 -1 -1
6 6 5 5 5 5 5 5 5 5 5 5 5 5 5 5 5 4 4 4 4 4 4 4 4 4 4 4 4 3 3 3 3 3 3 3 3 3 3 2 2 3 3 3 3 3 3 3 3 3 3 3 3 2 2 2 1 1 1 1 1 1 1 1 0 0 -0 -0 -1
5 5 5 5 5 5 5 5 5 5 5 5 5 4 4 4 4 4 4 4 4 4 4 4 4 3 3 3 3 3 3 3 3 3 3 3 3 3 3 2 2 2 3 3 3 3 3 3 3 3 3 3 3 2 2 2 1 1 1 1 1 1 1 0 0 0 -0 -0 -1
5 5 5 5 5 5 5 5 5 4 4 4 4 4 4 4 4 4 4 4 4 4 3 3 3 3 3 3 3 3 3 3 3 3 3 3 3 3 2 2 2 2 3 3 3 3 3 3 3 3 3 3 2 2 2 2 1 1 1 1 1 0 0 0 0 -0 -0 -0 -1
5 5 5 5 5 4 4 4 4 4 4 4 4 4 4 4 4 4 4 3 3 3 3 3 3 3 3 3 3 3 3 3 3 3 3 3 3 2 2 2 2 2 2 2 2 2 2 2 3 3 3 2 2 2 2 1 1 1 1 1 0 0 0 0 0 -0 -0 -1 -1
Height
788 787 787 786 786 785 785 784 784 784 783 783 782 782 781 781 781 780 779 779 778 777 776 776 775 774 773 773 773 772 771 771 770 770 769 769 768 767 767 766 766 766 766 765 765 766 766 766 766 766 765 765 765 765 764 765 765 765 765 765 765 765 766 766 766 766 767 767 768
787 786 786 785 785 784 784 783 783 782 782 781 781 780 780 780 779 778 777 777 776 775 774 774 773 772 771 771 770 770 769 768 768 767 767 766 765 765 764 764 764 763 763 763 763 763 763 763 763 763 762 762 762 762 761 761 762 762 762 761 762 762 763 763 762 763 764 764 765
786 785 785 784 784 783 783 782 781 781 780 780 779 779 779 778 777 776 775 775 774 773 773 772 771 770 769 768 768 767 767 766 765 765 764 763 762 762 762 761 761 760 760 760 760 760 760 760 760 760 759 759 759 758 758 758 758 759 758 758 759 760 760 759 759 760 761 762 762
785 784 784 783 783 782 782 781 780 780 779 779 778 778 777 776 775 775 774 773 772 772 771 770 769 768 767 766 765 765 764 764 763 762 761 760 760 759 759 758 758 758 757 757 757 757 757 757 757 757 756 756 755 755 754 754 755 755 755 755 756 756 757 756 756 757 758 759 759
784 783 783 782 782 781 780 780 779 779 778 777 777 776 775 774 774 773 772 771 770 769 769 768 767 766 765 764 763 762 762 761 761 760 759 758 757 756 756 756 755 755 754 754 754 754 754 754 755 754 753 753 752 751 751 751 752 752 752 752 753 753 753 753 753 754 755 755 755
783 782 782 781 781 780 779 779 778 777 777 776 775 774 774 773 772 771 771 769 769 768 767 766 765 764 763 762 761 760 759 759 758 757 756 755 754 754 753 753 752 752 751 751 751 751 751 752 752 751 750 750 749 748 748 749 749 749 749 749 749 750 750 750 750 751 751 752 752
782 781 780 780 779 779 778 777 777 776 775 775 774 773 772 771 771 770 769 768 767 766 765 764 763 762 761 760 759 758 757 756 755 754 754 753 752 751 751 750 749 749 749 748 748 748 748 749 749 748 747 747 746 745 745 746 746 746 746 746 746 746 746 746 746 747 748 748 748
780 780 779 779 778 777 777 776 775 775 774 773 772 771 771 770 769 768 767 766 765 764 763 762 761 760 759 758 757 756 755 754 753 752 751 750 749 749 748 747 747 746 745 745 745 745 745 746 746 745 744 744 743 742 742 743 743 743 743 743 742 743 743 743 743 744 744 744 744
779 778 778 777 777 776 775 775 774 773 772 771 771 770 769 768 767 766 765 764 763 762 761 760 759 758 757 756 755 754 753 752 751 750 749 748 747 746 745 744 744 743 742 742 742 742 742 742 742 741 741 740 740 739 739 740 740 740 739 739 739 740 740 740 740 741 741 741 741
777 776 776 775 775 774 774 773 772 772 771 770 769 768 767 766 765 764 763 762 761 760 759 758 757 756 755 754 752 751 750 749 748 747 746 745 745 744 742 741 741 740 739 739 739 739 739 739 739 738 737 736 736 736 736 737 737 736 736 736 736 737 737 737 737 738 738 738 738
775 774 774 774 773 773 772 771 771 770 769 768 767 766 765 764 763 762 761 760 759 757 756 755 755 754 752 751 750 749 748 747 746 745 744 743 742 741 740 739 738 737 736 736 736 736 736 736 735 734 733 733 733 733 733 734 734 733 733 733 733 733 734 734 734 735 735 735 735
773 773 772 772 771 771 770 769 769 768 767 766 765 764 763 762 761 760 759 758 756 755 754 753 752 751 750 749 747 746 745 744 743 742 741 740 739 738 737 736 735 734 733 733 733 733 733 732 731 731 730 729 730 730 730 730 730 730 730 729 730 730 730 730 730 731 732 732 732
772 771 770 770 769 769 768 767 766 766 765 764 763 762 761 760 759 758 757 756 754 753 752 751 750 749 748 746 745 744 743 742 741 740 739 737 736 735 734 733 732 731 731 730 730 730 730 729 728 727 726 726 726 726 726 726 727 727 726 726 726 726 726 726 727 727 728 729 729
770 769 769 768 767 767 766 765 764 764 763 762 761 760 759 758 757 756 755 754 752 751 750 749 748 747 746 744 743 742 740 739 738 737 736 734 734 732 731 730 729 729 728 727 727 727 726 725 724 724 723 723 722 722 723 723 723 723 723 723 723 722 722 722 723 724 725 725 725
768 767 767 766 766 765 764 763 762 762 761 760 759 758 757 756 755 754 753 751 750 749 748 746 745 744 743 742 741 739 738 737 736 734 733 731 730 730 729 728 727 726 725 725 724 724 723 722 721 721 720 719 719 719 719 719 719 719 719 719 719 719 719 719 720 721 722 722 722
766 766 765 764 764 763 762 761 761 760 759 758 757 756 755 754 753 752 751 749 748 747 745 744 743 741 740 739 738 737 736 734 733 731 730 729 727 726 726 725 724 723 723 722 721 720 720 719 718 718 717 716 716 716 716 716 716 716 715 715 715 715 715 716 717 717 718 718 718
765 764 764 763 762 761 760 760 759 758 757 756 755 754 753 752 751 750 748 747 746 744 743 741 740 739 738 736 735 734 733 731 730 729 727 726 725 724 723 722 721 721 720 719 719 717 716 716 715 715 714 714 713 713 713 713 713 712 712 712 712 712 712 712 713 714 714 714 715
763 763 762 761 760 759 759 758 757 756 755 754 753 752 751 750 748 747 746 745 744 742 740 739 738 737 735 734 733 732 731 729 727 726 725 723 722 721 720 719 718 718 717 717 716 715 714 713 712 712 711 711 710 710 710 710 710 709 709 709 709 709 709 709 710 710 710 711 711
762 761 760 759 759 758 757 756 755 754 753 752 751 749 748 747 746 745 743 742 741 740 738 736 735 734 733 731 730 729 728 727 725 723 722 721 720 719 718 716 716 715 714 714 713 712 711 710 710 709 709 708 708 707 707 707 706 706 706 706 706 706 706 706 706 706 707 707 707
760 759 759 758 757 756 755 754 753 751 750 749 748 747 746 744 743 742 741 739 738 737 736 734 733 731 730 729 728 726 725 724 723 721 719 718 717 716 715 714 713 712 711 711 710 709 708 708 707 706 706 705 705 704 704 704 704 703 703 703 703 702 702 703 703 703 704 704 704
759 758 757 756 755 754 753 752 751 749 748 747 746 744 743 742 741 739 738 737 736 734 733 732 730 729 727 726 725 724 722 721 720 719 717 716 715 714 712 712 711 709 709 708 707 706 705 705 704 704 703 703 702 701 701 701 701 700 700 699 699 699 699 699 700 700 700 700 701
757 756 755 754 753 752 751 749 748 747 746 744 743 742 741 739 738 737 736 734 733 732 730 729 728 726 725 724 722 721 720 719 718 716 715 714 712 711 710 709 708 707 706 705 704 703 703 702 701 701 700 700 699 698 698 698 698 697 697 696 696 696 696 696 697 697 697 697 697
755 754 753 752 751 750 749 747 746 745 743 742 741 739 738 737 735 734 733 731 730 729 727 726 725 724 722 721 720 719 717 716 714 713 712 711 710 708 707 707 706 704 703 702 702 701 700 699 698 698 697 697 696 695 695 695 695 694 694 694 694 693 694 694 694 694 694 694 695
753 752 751 750 749 748 746 745 744 742 741 739 738 737 735 734 733 731 730 729 727 726 725 723 722 721 720 719 718 716 715 713 712 710 709 708 707 706 705 704 703 702 701 700 699 698 698 697 696 695 694 694 693 693 692 692 692 692 691 691 691 691 691 691 691 691 691 692 692
752 751 750 748 747 745 744 743 741 739 738 737 735 734 733 731 730 729 727 726 724 723 722 721 719 718 717 716 715 714 712 711 709 708 706 705 704 703 702 701 700 699 698 697 696 696 696 695 694 693 692 691 690 690 689 689 689 689 689 689 689 689 688 688 688 689 689 689 689
750 749 747 746 745 743 742 740 739 737 736 734 733 731 730 729 727 726 724 723 721 720 719 718 717 716 715 714 712 711 709 708 707 705 704 702 701 700 699 699 697 696 695 695 694 694 693 693 692 691 690 689 688 687 686 686 686 686 686 686 686 686 686 686 685 685 686 686 686
748 747 745 744 742 741 739 738 736 735 733 732 730 729 727 726 724 723 721 720 718 717 716 715 714 713 712 711 709 708 706 705 704 703 701 700 699 697 696 696 695 694 693 692 692 691 691 690 690 689 689 688 686 685 684 683 682 682 682 682 682 683 683 682 682 682 683 683 684
746 745 743 742 740 739 737 736 734 732 731 729 728 726 724 723 721 720 719 717 716 715 713 712 711 711 709 708 707 705 704 702 701 700 699 698 696 695 694 693 692 691 690 690 689 689 688 688 687 687 686 685 684 683 681 680 679 679 679 679 679 679 679 679 679 680 680 681 681
744 743 741 740 738 736 735 733 732 730 728 727 725 723 722 720 719 717 716 714 713 712 711 710 709 708 707 705 704 702 701 700 699 697 696 695 694 692 691 690 689 688 688 687 687 686 686 685 684 684 683 683 682 680 679 678 677 676 676 676 676 676 676 676 676 677 677 678 678
742 741 739 738 736 734 732 731 729 727 726 724 722 721 719 718 716 715 713 712 711 710 709 707 706 705 704 702 701 699 698 697 696 695 694 692 691 689 688 687 686 686 685 685 684 684 683 682 681 681 680 680 679 678 676 675 674 674 673 672 672 672 673 673 673 674 674 675 675
740 739 737 735 734 732 730 728 726 725 723 722 720 718 717 715 714 712 711 710 708 707 706 705 704 702 700 699 698 697 695 694 693 692 691 689 688 686 685 684 684 683 682 682 682 681 680 679 679 678 677 677 676 675 674 672 672 671 670 669 669 669 669 669 670 670 671 671 672
738 736 735 733 731 729 727 726 724 722 721 719 718 716 714 713 711 710 708 707 706 704 703 702 701 699 697 696 695 694 692 691 690 689 688 687 685 684 683 682 681 680 680 679 679 678 677 676 676 675 674 674 673 671 670 669 669 668 667 666 666 666 666 666 667 667 667 668 669
736 734 733 731 729 727 725 723 721 720 718 717 715 714 712 710 708 707 706 705 704 702 701 699 698 697 695 694 692 691 689 688 687 686 685 684 683 681 680 679 678 678 677 677 676 675 674 674 673 672 671 670 669 668 667 666 666 665 664 664 663 663 663 663 663 664 664 665 665
734 732 730 729 727 724 723 721 719 718 716 714 713 711 710 708 706 705 703 702 701 700 699 697 696 694 693 691 690 688 687 685 684 683 682 681 680 679 678 676 675 675 675 674 674 673 672 671 670 669 668 667 666 665 664 663 662 662 661 661 660 660 660 660 660 660 661 662 662
731 730 728 726 724 723 721 719 717 716 714 712 710 709 707 706 704 703 701 700 699 698 696 695 693 692 690 689 687 686 684 683 681 680 680 679 678 676 675 674 673 672 672 672 671 670 669 668 667 666 665 664 663 662 661 660 659 659 658 658 657 657 657 657 657 658 658 659 659
730 728 726 724 723 721 719 717 715 714 712 710 708 706 705 704 702 701 700 699 697 695 693 692 690 689 687 686 684 683 682 681 679 678 677 676 675 674 673 671 670 670 669 669 668 667 666 665 664 663 662 661 660 659 658 657 656 655 655 655 654 654 655 655 655 655 655 656 656
728 727 725 723 721 719 717 715 714 712 710 708 706 705 703 702 700 699 698 697 695 693 690 689 687 686 684 683 682 680 679 678 677 676 675 674 673 672 670 669 668 667 667 666 665 664 663 662 661 661 660 659 658 656 655 654 653 652 652 651 651 651 652 652 652 652 652 653 653
726 725 723 721 719 717 715 714 712 710 708 706 704 703 701 700 698 696 695 694 693 690 688 686 685 683 682 681 679 678 676 676 675 674 673 671 671 670 668 666 665 664 664 663 663 662 661 660 659 658 657 656 655 654 653 652 651 650 649 649 648 649 649 649 650 650 650 650 650
724 723 722 720 718 716 714 712 710 708 706 704 702 701 699 698 696 694 693 692 691 689 686 684 682 681 679 678 677 675 674 673 673 672 671 669 668 667 666 664 663 661 661 661 660 659 658 657 656 656 655 654 652 651 650 649 648 647 646 646 646 646 646 647 647 647 647 647 647
723 721 720 718 716 714 712 710 708 706 705 703 701 699 697 695 694 692 691 689 688 686 684 682 680 678 677 676 675 673 671 671 670 669 669 667 666 665 664 663 661 659 658 658 657 656 656 655 654 653 652 651 650 649 648 647 646 645 644 644 644 644 644 644 644 644 644 644 645
721 720 718 716 714 713 711 708 706 704 703 701 699 697 695 693 691 690 688 687 685 684 682 680 678 676 675 674 673 671 669 668 667 667 666 665 664 663 662 660 659 657 656 655 655 654 653 652 651 651 650 649 648 647 646 645 644 642 642 641 641 641 641 641 641 642 642 642 642
Wind_Speed
27 28 29 29 30 30 30 30 31 31 31 31 31 31 31 30 30 31 31 31 31 32 32 33 34 34 35 35 35 35 35 36 36 37 37 38 39 39 40 41 41 42 42 42 41 41 40 40 39 39 38 37 37 37 37 37 37 37 37 36 36 36 36 36 37 38 38 38 37
21 22 24 25 27 27 28 29 29 30 30 30 31 31 31 30 31 31 32 32 32 32 33 33 34 35 35 36 36 35 35 36 37 37 38 38 39 40 41 41 41 42 42 42 41 40 40 39 39 38 37 36 36 36 37 37 37 37 37 37 37 36 35 35 36 37 38 38 37
15 16 17 18 20 22 23 25 26 27 27 28 29 29 29 30 30 31 31 32 32 33 33 33 34 35 35 36 36 36 36 36 37 37 38 38 39 40 40 41 41 42 42 42 42 41 40 40 38 37 36 36 36 37 37 37 37 37 37 38 37 35 34 34 35 35 35 35 36
12 12 13 14 15 16 17 19 20 21 22 23 24 25 26 28 29 29 30 31 32 32 32 33 33 34 34 35 35 36 36 36 37 37 38 39 39 40 40 41 41 41 42 42 42 42 42 40 39 37 37 37 37 38 38 38 37 36 36 36 36 35 34 34 34 33 33 33 34
13 13 13 14 14 15 15 16 17 18 19 20 21 22 23 25 26 27 28 29 30 31 31 32 32 33 34 34 35 36 36 37 37 37 37 38 39 40 40 41 41 41 42 42 43 43 43 41 39 37 37 37 38 39 39 39 37 36 36 35 34 34 34 34 33 33 32 32 32
15 15 15 15 16 16 17 17 17 18 19 19 20 21 22 23 24 25 26 27 28 30 31 31 32 33 34 34 35 36 36 37 37 37 38 38 39 40 40 40 41 41 42 42 42 42 42 41 39 37 37 38 38 39 40 39 37 35 35 34 34 34 33 34 33 33 32 32 32
15 16 16 16 16 16 17 17 17 18 18 19 20 21 22 23 23 24 25 27 28 29 29 30 31 32 32 33 34 35 35 36 37 37 37 38 39 39 40 40 41 41 42 42 42 42 41 41 38 37 37 37 37 38 39 38 37 36 35 34 34 34 34 34 34 33 32 33 34
14 15 15 16 16 16 16 16 17 17 18 19 20 21 21 22 23 24 25 26 26 27 28 28 29 30 31 32 33 34 35 36 36 37 37 37 38 39 39 40 40 41 41 42 41 41 40 39 38 37 37 37 36 37 37 37 37 37 36 36 35 35 34 34 34 34 33 34 35
14 14 14 15 15 15 16 16 17 18 18 19 20 21 22 22 23 24 25 25 26 26 27 28 28 29 30 31 32 33 34 35 35 36 36 37 37 38 39 40 40 41 41 41 41 40 39 38 37 38 38 37 36 36 36 37 37 37 38 37 36 35 35 34 35 35 34 35 35
14 14 14 14 15 15 16 17 18 18 19 20 21 22 23 24 24 25 25 26 26 27 27 28 29 29 30 31 32 33 33 34 34 35 36 36 37 38 39 39 40 41 41 41 40 39 39 38 37 38 38 39 39 39 38 37 36 37 38 37 37 36 36 35 35 35 35 35 36
15 14 14 15 15 16 17 18 19 20 21 22 23 24 24 25 26 26 27 27 28 28 29 29 29 30 30 31 32 32 32 32 33 33 34 35 36 37 38 39 40 41 41 41 40 39 37 37 37 38 39 40 40 40 39 37 37 37 38 38 37 37 37 37 36 35 35 35 36
16 16 15 15 16 17 18 19 20 21 22 24 25 25 26 27 27 28 29 29 29 30 30 30 30 30 31 31 31 32 32 32 32 33 33 34 36 37 38 39 40 40 41 41 40 38 37 37 37 39 40 40 40 39 39 38 38 38 38 38 38 37 37 38 38 37 36 35 36
19 17 17 17 17 18 19 20 21 23 24 25 26 27 28 28 29 30 30 30 31 31 31 31 31 31 31 31 31 32 32 32 32 32 33 34 34 35 36 37 38 39 40 41 40 39 37 37 38 40 40 41 40 39 39 39 38 38 38 38 38 38 38 39 39 38 37 36 36
21 19 18 18 19 19 20 21 22 23 25 26 28 28 29 30 31 32 32 32 32 32 32 32 32 31 31 31 32 32 32 32 32 33 33 33 34 34 35 36 37 38 39 40 40 39 39 39 40 41 41 41 41 41 40 40 39 39 39 39 39 39 40 40 39 38 37 37 37
23 21 20 20 21 21 22 22 23 24 26 28 29 30 31 32 33 33 33 33 33 33 33 32 32 32 32 32 33 33 33 33 32 33 33 33 33 34 34 35 36 37 38 39 39 40 40 41 41 42 42 42 42 42 41 41 40 40 40 40 40 40 41 41 40 39 38 37 37
25 23 22 22 22 23 24 24 25 26 27 29 30 31 32 33 34 35 34 34 34 34 33 33 33 33 33 33 33 33 33 33 33 32 33 33 33 33 34 34 35 36 37 38 39 40 40 41 41 42 42 43 43 42 42 41 41 41 41 41 41 41 41 41 41 40 39 39 38
26 24 23 23 24 25 26 26 27 27 28 30 31 33 34 34 35 35 35 35 34 34 34 34 34 34 34 34 34 33 33 33 33 33 33 33 33 33 33 34 35 35 36 37 38 39 40 41 41 41 42 42 42 42 42 42 42 41 41 41 41 42 42 42 41 41 40 40 39
27 25 24 25 26 27 28 28 28 29 30 31 32 34 35 36 36 36 36 36 35 35 35 35 35 34 34 35 34 34 33 33 33 33 33 33 33 33 34 34 34 35 35 36 37 39 40 41 41 41 41 41 41 42 42 42 42 42 42 42 42 42 43 42 42 41 40 40 40
27 26 26 27 28 29 29 29 29 30 31 32 34 35 37 37 37 37 37 36 36 35 35 35 35 35 35 35 35 34 33 33 33 34 34 34 34 34 34 34 34 34 35 36 37 38 39 40 40 40 40 40 40 40 41 41 41 41 41 42 42 42 43 43 43 42 41 40 40
28 28 28 29 29 29 29 29 30 31 32 34 35 37 38 38 38 38 38 37 36 35 35 35 36 36 36 35 35 35 34 33 34 34 34 34 34 34 35 35 35 35 35 35 36 37 38 38 39 39 39 39 40 40 40 40 40 40 41 41 41 42 42 42 43 42 42 41 41
30 30 30 30 29 29 29 30 31 32 34 35 37 38 38 39 39 38 38 37 37 36 35 36 36 36 36 36 35 35 35 34 34 34 34 35 35 35 35 35 35 35 35 35 35 36 37 37 38 38 39 39 39 39 39 39 39 39 40 40 40 41 41 42 42 41 41 42 41
31 31 30 29 28 29 29 31 32 34 35 37 38 39 39 39 39 38 38 38 37 36 36 36 36 36 36 35 35 35 35 35 34 34 35 35 35 35 35 35 35 35 35 35 35 36 36 37 37 37 38 38 38 39 39 38 38 39 39 40 40 40 40 40 40 40 40 41 41
30 29 29 28 29 30 31 33 35 36 37 38 39 39 39 39 38 38 38 38 37 37 36 36 36 35 36 35 35 35 36 36 36 36 35 35 35 36 35 35 35 35 35 35 35 35 36 36 37 37 37 38 38 39 39 38 38 38 38 38 39 39 39 38 38 38 38 39 39
27 28 28 29 31 33 34 36 37 38 39 39 39 39 39 38 38 38 38 38 38 37 37 36 36 36 36 36 36 36 35 36 36 36 36 36 35 35 35 35 35 35 34 34 34 34 34 34 35 36 36 37 37 37 37 37 37 36 36 36 37 36 36 36 36 36 37 37 37
28 29 31 33 34 36 37 37 37 38 38 38 38 38 38 38 38 38 38 38 38 38 38 37 37 36 36 36 36 35 35 35 35 36 36 36 36 36 35 35 35 34 34 34 34 33 32 31 32 32 33 33 34 35 35 36 36 36 36 35 35 34 34 34 35 35 36 36 36
31 32 34 35 36 36 36 37 37 37 37 37 37 37 38 38 38 38 38 39 39 39 38 38 37 36 35 35 35 35 35 35 35 35 35 35 36 36 35 35 34 34 34 34 33 32 31 30 30 30 30 31 32 32 33 33 34 35 35 35 34 34 33 33 33 34 34 35 35
33 34 35 35 35 35 35 35 36 36 35 36 36 37 38 38 38 38 38 39 39 39 38 37 37 36 35 34 34 34 35 35 34 34 34 35 35 35 35 35 34 34 34 34 33 32 31 30 30 30 30 31 31 31 32 32 33 34 34 34 34 34 33 33 33 33 33 32 33
34 34 35 35 35 35 35 35 35 35 35 36 36 37 38 38 39 39 38 38 38 38 37 37 36 34 33 32 33 34 34 35 34 34 34 34 34 35 35 34 34 34 34 33 32 31 31 30 30 30 30 31 31 32 32 31 32 32 32 32 32 33 33 33 33 32 32 32 31
34 34 34 34 34 34 34 34 35 35 36 36 37 38 38 38 38 38 38 38 37 37 36 35 34 33 32 32 33 34 35 35 35 34 34 34 34 34 34 34 34 34 34 33 32 31 31 30 30 30 30 31 31 30 29 29 29 29 29 30 30 31 31 32 32 32 31 31 31
34 34 34 34 34 34 35 35 35 36 36 37 37 38 38 38 38 38 37 37 36 36 35 35 34 33 33 33 34 34 34 35 35 34 33 33 34 34 34 34 34 34 34 33 32 32 31 31 31 31 31 31 31 31 31 30 28 28 28 28 30 30 31 31 32 32 31 31 30
34 34 33 33 34 34 35 36 36 37 37 37 37 37 37 37 38 38 37 37 36 36 35 34 33 33 34 34 34 34 34 35 34 34 33 33 33 34 34 34 34 34 34 33 32 32 32 31 31 31 31 31 31 31 31 30 30 28 27 28 29 30 31 31 31 32 31 31 30
34 34 34 33 34 35 36 36 37 37 37 37 37 37 37 37 38 38 37 36 36 35 34 33 33 33 34 34 34 34 34 34 34 33 33 33 33 33 34 34 34 34 33 33 32 32 31 31 31 31 31 31 31 32 32 32 31 30 29 29 29 30 30 30 31 31 31 31 31
35 35 34 34 34 35 36 37 37 37 37 36 36 36 37 37 37 37 36 35 34 32 32 31 31 32 33 33 34 34 34 34 34 33 33 33 33 33 33 33 33 32 32 31 31 31 31 31 31 31 31 31 32 32 32 31 31 30 29 29 29 29 30 31 31 31 32 32 31
35 35 34 34 34 35 36 36 36 36 36 35 36 36 36 36 36 35 34 33 32 31 30 31 31 32 33 33 33 34 34 34 34 33 33 33 33 33 32 32 32 32 31 30 30 30 31 31 31 31 32 32 32 32 31 31 30 30 29 29 29 29 29 30 31 32 33 33 32
35 34 34 34 34 35 35 35 35 35 35 34 35 35 35 35 34 33 33 32 31 31 31 32 32 33 33 34 34 33 33 34 34 34 33 33 32 31 31 31 32 32 31 30 30 30 31 31 31 31 32 32 32 31 31 30 30 30 30 30 30 29 29 30 31 32 33 33 33
33 33 33 34 34 35 35 35 35 35 35 34 34 34 34 33 33 32 31 31 31 31 32 33 34 33 33 33 33 33 32 32 32 32 32 31 30 29 30 30 31 31 31 30 30 30 30 30 31 31 31 31 31 30 29 28 28 29 30 30 30 30 30 30 30 31 31 32 32
33 32 33 33 34 34 35 34 34 34 34 34 33 33 33 33 32 32 31 30 30 31 32 33 33 32 32 32 32 32 32 32 31 31 30 30 29 28 29 29 30 31 30 30 30 30 30 30 30 30 30 30 29 29 28 27 27 27 28 28 29 29 29 29 29 29 30 31 32
33 32 32 33 33 34 34 34 33 33 33 33 33 33 32 32 32 32 31 30 30 30 31 32 32 32 32 32 32 32 32 31 30 29 28 28 28 28 28 29 30 30 30 30 30 29 29 29 29 29 29 29 29 28 27 26 26 26 26 26 27 28 28 27 27 27 28 30 31
33 32 32 32 33 33 33 33 32 32 32 32 33 33 33 33 32 32 31 30 30 30 31 31 32 32 32 32 31 30 30 30 28 27 27 27 27 27 27 28 29 30 30 30 29 29 29 28 29 29 29 29 29 28 26 25 25 25 25 25 25 25 26 25 25 26 27 28 29
32 32 32 32 32 32 32 32 32 32 32 32 33 34 34 33 33 32 31 30 30 30 31 31 32 32 31 30 29 28 28 28 28 27 27 27 27 27 27 27 29 30 31 31 30 29 29 29 28 28 28 28 28 27 26 25 25 24 24 23 23 22 23 23 24 24 25 26 28
32 31 31 31 31 31 31 32 32 32 32 32 33 33 33 33 32 32 32 31 31 31 30 30 30 30 30 29 28 28 28 28 28 28 27 27 28 27 27 28 29 31 32 31 31 30 29 28 28 27 27 27 27 26 25 24 24 23 23 22 22 21 21 22 22 23 23 24 25
Wind_Direction
275 274 272 271 269 268 267 268 269 269 269 270 270 270 271 270 269 270 272 272 271 271 272 273 274 275 276 276 274 272 270 269 267 265 263 261 260 259 258 256 255 253 251 250 249 247 246 244 243 241 240 240 240 240 240 239 238 238 237 236 236 236 236 236 236 237 236 236 236
287 285 282 279 276 274 273 273 273 273 274 274 274 275 275 274 273 273 274 274 274 274 275 275 276 277 277 277 276 274 272 270 268 266 265 263 262 261 260 258 256 254 253 251 249 247 246 244 242 241 240 240 240 240 240 240 238 238 237 236 236 236 236 236 237 237 238 237 237
304 301 296 291 287 283 280 279 279 279 279 280 280 280 279 277 276 276 276 277 278 278 277 276 277 278 278 278 278 276 274 272 270 268 266 264 263 262 261 259 258 256 254 252 250 248 246 244 242 241 240 240 239 239 239 239 238 237 237 237 237 236 236 237 238 238 238 238 238
310 310 307 304 301 296 293 292 291 290 289 289 288 287 284 282 280 279 279 280 280 279 278 278 278 279 279 279 279 278 276 274 272 270 267 266 265 263 262 261 259 257 255 254 251 249 247 245 243 241 240 240 239 239 240 240 238 237 237 237 237 236 236 237 238 238 238 238 238
305 306 307 308 308 307 306 305 303 301 300 299 297 294 291 288 286 284 283 282 281 281 282 282 281 281 281 280 279 278 277 276 274 271 269 267 266 266 264 262 260 258 257 255 253 251 248 246 243 241 241 240 240 240 240 240 239 237 237 237 237 236 236 237 238 238 238 238 237
300 301 302 303 304 305 305 305 305 305 304 303 301 298 296 294 293 290 288 286 286 287 287 287 285 283 282 282 281 280 279 277 275 273 271 269 268 267 265 263 262 260 258 256 254 252 249 246 243 242 241 241 241 242 242 241 239 238 237 237 237 236 236 236 237 237 237 237 237
294 296 298 299 300 301 302 302 302 302 302 301 300 299 298 298 297 296 295 294 293 292 291 289 287 286 285 284 283 282 281 279 278 275 273 271 270 268 267 265 264 262 260 258 255 253 250 246 243 242 242 241 242 242 242 241 239 237 237 236 237 237 236 236 237 236 236 236 236
284 288 292 295 298 299 300 301 301 301 300 299 299 299 299 300 301 300 300 299 297 296 295 293 291 290 289 288 287 285 284 282 280 278 276 273 272 270 269 267 265 263 261 259 257 254 250 247 244 242 241 241 242 242 242 241 239 237 236 237 238 238 237 237 237 236 235 235 235
278 282 287 291 295 298 301 302 302 302 302 302 302 302 303 304 304 304 304 303 303 302 301 299 297 296 295 293 291 289 287 285 283 281 278 276 274 272 271 269 267 265 263 261 258 255 251 247 244 242 241 241 241 241 242 241 239 237 237 237 238 238 238 237 237 236 236 235 236
274 279 284 290 295 299 303 304 305 305 306 306 307 308 309 309 309 309 309 308 308 307 305 304 303 301 299 297 295 293 291 288 286 284 282 280 277 274 272 271 269 267 265 263 259 256 252 248 244 243 242 242 241 242 242 240 239 238 238 237 238 238 238 238 237 237 236 236 236
273 278 284 290 296 301 304 305 307 308 310 311 312 313 314 314 313 313 313 312 310 308 307 307 306 304 302 300 298 296 294 292 289 287 285 283 280 277 275 273 271 269 267 265 261 257 252 248 245 243 243 243 242 242 241 240 239 238 238 238 238 238 238 238 237 236 236 236 237
274 277 282 289 295 300 304 306 308 311 313 314 315 316 316 315 315 315 314 312 310 308 308 309 307 305 303 302 300 299 297 295 292 290 287 285 283 280 277 275 273 270 268 266 263 258 253 249 246 245 244 243 243 242 241 240 239 238 238 238 238 238 238 238 237 236 236 236 237
275 277 281 288 294 299 303 306 309 312 314 315 316 316 316 316 315 314 313 311 309 308 308 308 307 305 303 302 301 300 298 297 295 292 290 287 284 282 279 276 274 272 270 267 264 260 254 251 248 247 245 244 243 242 241 240 239 238 238 238 238 237 238 238 238 237 236 236 236
275 276 280 286 292 297 301 305 308 311 313 314 315 315 315 315 314 314 312 310 308 308 307 307 306 305 303 302 301 300 299 298 296 294 291 289 286 283 280 277 275 272 270 268 265 261 257 253 251 249 247 246 245 244 242 241 239 238 238 237 237 237 238 239 239 238 237 236 236
274 275 280 286 291 296 301 304 308 310 312 313 313 314 314 313 313 312 311 309 308 307 306 305 304 304 304 303 302 301 300 299 297 295 293 291 288 285 282 279 276 274 271 269 266 263 259 256 254 251 250 248 247 246 244 242 241 240 239 238 238 238 239 240 240 238 237 236 235
273 275 280 286 292 297 301 305 307 309 311 311 312 312 312 311 311 311 309 307 306 305 304 303 303 303 303 303 302 301 300 299 298 296 294 292 291 289 286 282 279 276 273 270 267 265 262 259 257 254 252 250 249 248 246 244 242 241 240 240 240 240 240 241 240 239 238 237 236
272 276 282 288 294 299 303 306 308 309 309 310 310 310 309 309 309 309 307 306 305 303 302 302 302 302 301 302 302 302 300 299 298 297 295 294 293 291 289 286 283 280 276 273 269 266 264 262 259 257 254 252 251 249 248 246 244 243 242 242 241 241 241 241 241 240 239 238 237
274 278 285 291 297 301 304 306 307 308 308 308 308 308 308 308 307 307 306 305 303 302 301 301 301 301 300 300 301 301 300 299 298 297 296 295 295 293 292 289 287 284 280 276 271 268 266 264 262 259 257 254 252 251 250 248 246 245 244 243 243 243 242 242 242 241 240 239 238
278 281 288 294 299 302 305 306 307 307 307 307 306 306 306 306 306 305 304 304 303 302 301 300 300 300 300 300 300 301 300 299 298 297 297 297 296 295 294 292 290 287 283 279 275 271 268 266 264 261 258 256 254 252 251 249 248 247 246 245 244 244 243 243 243 242 241 240 239
283 285 291 296 300 303 304 305 306 305 305 305 305 305 305 305 304 304 303 303 303 303 301 300 299 299 299 300 300 300 300 299 298 298 298 298 297 296 295 294 292 290 286 282 278 274 271 268 265 263 260 257 255 253 252 250 249 248 247 246 246 245 245 244 244 243 242 241 241
289 290 294 298 301 303 304 304 304 304 303 303 303 304 304 304 303 302 302 302 303 303 301 300 299 298 298 299 299 299 299 299 298 297 297 297 297 296 296 295 293 291 288 284 280 276 273 270 267 264 262 259 256 255 253 252 250 249 248 248 247 246 246 245 245 244 243 242 241
295 295 298 301 303 303 303 303 303 302 302 303 303 303 303 303 302 301 301 302 302 302 301 300 299 299 298 298 297 297 298 298 298 297 297 297 297 297 297 296 293 291 288 285 282 279 275 272 269 266 263 260 258 256 254 253 251 250 249 249 248 248 247 246 245 244 244 243 243
302 301 302 303 304 304 303 303 303 303 303 303 303 303 303 302 301 301 302 302 302 301 301 300 300 299 298 298 297 296 296 296 297 297 298 298 297 297 297 296 293 290 287 285 282 280 277 274 271 268 265 261 259 258 256 254 252 251 250 250 249 249 248 247 246 245 244 244 243
306 305 305 305 305 304 304 304 304 304 304 304 304 304 303 302 301 301 301 301 301 301 301 300 300 299 299 298 296 295 294 294 295 297 298 299 298 298 298 296 294 291 288 286 284 281 277 274 271 269 267 264 261 259 257 255 253 252 251 251 250 250 249 248 247 246 245 245 244
308 307 306 306 305 305 305 305 304 304 304 305 304 304 302 302 301 301 300 300 300 300 300 300 300 299 298 297 296 294 293 293 293 295 296 298 298 298 297 296 294 292 290 288 286 283 278 274 271 269 267 265 263 262 260 257 255 253 252 251 251 250 250 250 249 247 246 245 244
309 308 307 307 306 306 305 305 305 305 305 305 304 303 302 302 301 300 299 298 299 299 299 299 298 298 297 296 294 293 292 292 292 293 294 296 297 297 296 294 293 291 290 289 287 284 279 275 271 268 267 266 264 261 259 258 256 254 253 251 250 250 249 249 249 248 247 246 245
311 309 309 308 308 307 306 306 306 305 304 304 303 302 302 301 300 299 297 297 297 297 297 297 297 296 295 294 292 291 291 291 291 292 293 293 294 294 294 293 292 291 290 289 287 285 281 278 274 271 269 266 264 261 258 256 255 254 252 250 249 248 248 248 248 248 248 247 246
311 311 310 310 308 307 307 307 306 305 304 303 303 302 301 300 299 297 296 295 295 296 295 295 296 295 294 292 291 290 290 290 291 291 291 292 292 292 291 291 290 290 290 290 288 285 282 280 277 274 272 269 267 264 261 257 254 252 250 249 248 247 246 247 248 249 249 248 247
312 312 311 309 308 308 307 306 305 304 304 303 302 301 300 299 297 296 295 294 294 293 293 294 294 293 292 290 290 290 290 289 290 290 290 290 290 290 290 290 290 290 290 290 288 286 283 281 279 276 274 272 270 267 264 260 255 252 249 247 247 246 245 246 247 247 248 248 248
313 312 310 309 308 307 306 305 304 304 303 302 301 300 298 297 296 295 294 293 292 292 292 292 292 291 289 289 290 290 289 289 289 289 289 289 288 289 289 289 289 290 290 290 288 287 284 282 280 278 276 274 272 270 267 264 259 255 250 247 246 246 244 244 245 246 246 247 247
313 312 310 308 306 305 304 304 304 303 302 301 300 298 297 295 294 294 293 292 292 292 293 292 291 289 289 290 290 289 288 288 288 288 287 287 287 288 288 289 289 289 290 290 289 287 285 283 281 279 278 276 274 271 268 266 263 258 253 249 246 244 243 242 243 243 244 244 244
312 311 309 306 304 304 303 303 303 302 301 299 298 297 295 294 293 293 293 293 292 292 292 291 290 290 290 291 291 290 289 288 287 287 287 286 286 287 288 288 288 289 289 289 289 288 286 284 281 279 278 278 275 272 269 267 265 261 258 254 250 247 245 243 244 244 243 242 242
311 309 307 304 303 302 302 301 301 300 299 298 296 295 294 294 294 294 293 293 292 291 291 290 290 290 291 291 291 290 289 287 287 286 286 286 286 286 286 287 287 287 288 289 289 288 286 284 281 280 280 279 276 273 270 267 265 262 260 257 254 251 248 246 244 243 242 242 241
309 307 305 303 302 301 300 300 299 299 298 296 296 295 294 294 294 293 293 293 292 292 291 291 291 292 292 291 290 289 288 287 286 286 286 286 286 286 286 285 286 287 288 289 289 288 286 284 282 282 281 280 278 274 271 267 264 262 260 257 256 253 251 247 245 243 243 243 242
307 305 303 302 301 301 300 299 299 298 297 296 296 296 295 295 294 294 294 294 294 294 293 294 294 294 293 293 291 289 287 286 286 286 286 287 286 286 285 285 286 288 289 290 289 288 286 284 284 283 283 282 279 276 272 268 265 262 259 258 256 254 252 250 248 246 245 245 244
306 304 303 302 302 301 300 299 299 299 298 297 297 297 297 297 296 296 296 296 296 296 295 296 296 295 294 293 291 289 287 286 286 286 287 287 286 285 284 285 287 289 291 291 291 289 287 285 285 284 285 284 281 278 274 269 265 262 260 258 256 255 253 251 250 248 246 244 244
306 304 303 302 302 302 301 300 300 300 299 299 299 299 299 299 298 298 298 298 298 297 297 297 296 295 294 292 291 290 288 287 286 286 286 286 285 284 284 286 288 290 291 292 291 290 288 286 285 286 286 285 282 278 274 270 266 263 260 258 256 254 253 252 250 249 247 244 243
306 305 304 303 303 303 302 302 301 301 301 301 301 301 301 301 300 300 300 300 299 298 297 297 296 295 294 293 292 291 290 289 287 286 285 285 285 285 285 286 288 290 292 292 291 290 288 287 286 287 286 284 282 279 274 270 266 263 260 258 256 255 253 251 250 249 247 245 244
307 307 306 305 305 304 304 303 303 303 302 302 302 302 302 302 301 300 300 300 298 297 296 296 295 295 294 294 292 291 290 289 287 286 285 284 285 286 286 287 289 291 293 293 292 290 288 287 288 288 287 285 283 279 275 271 267 263 261 258 257 255 253 251 249 248 247 246 244
308 308 308 307 307 306 306 305 304 304 304 303 303 303 302 302 301 301 300 300 299 298 297 295 295 295 295 294 292 291 290 289 288 286 285 284 286 287 288 288 290 291 293 293 293 291 290 289 288 288 288 287 284 281 277 273 269 265 261 258 256 255 253 251 249 248 247 246 245
310 310 310 309 308 308 307 306 305 305 304 303 302 302 302 302 301 301 301 300 299 298 297 296 295 295 295 294 293 291 290 289 288 286 285 285 286 288 289 290 291 293 294 294 294 292 291 290 289 289 289 287 285 283 279 275 271 266 262 259 256 254 253 252 251 249 247 246 244